Location: �terpigny
(49.8910°N, 2.9249°E)
Time: 11:22:01
(UTC+00:00)

Resurs 01 Rocket - Pass Details

Date: 24 October 2021
Orbit: 635 x 643 km, 97.9° (Epoch: 05 December)

Event Time Altitude Azimuth Distance (km) Brightness Sun altitude
Exits shadow 19:57:01 12° 356° (N) 1,922 4.3 -32.1°
Drops below altitude 10° 19:57:19 10° 355° (N) 2,041 4.5 -32.1°
Sets 19:59:34 0° 350° (N) 2,957 5.4 -32.5°
